Regional Weather Roundup
Issued by NWS

Home | Current Version | Previous Version | Graphics & Text | Print | Product List | Glossary On
Versions: 1 2 3 4 5 6 7 8 9 10 11 12 13 14 15 16 17 18 19 20 21 22 23 24 25 26 27 28 29 30 31 32 33 34 35 36 37 38 39 40 41 42 43 44 45 46 47 48 49 50
000
ASUS44 KLIX 260112
RWRLA
LOUISIANA WEATHER ROUNDUP
NATIONAL WEATHER SERVICE NEW ORLEANS LA
700 PM CST SUN FEB 25 2018

NOTE: "FAIR" INDICATES FEW OR NO CLOUDS BELOW 12,000 FEET WITH NO
      SIGNIFICANT WEATHER AND/OR OBSTRUCTIONS TO VISIBILITY.
      SKY/WX - SKY CONDITION AND SIGNIFICANT WEATHER.
      TMP - AIR TEMPERATURE.    DP   - DEWPOINT TEMPERATURE.
      RH  - RELATIVE HUMIDITY.  PRES - PRESSURE.
      HX  - HEAT INDEX.         WCI  - WIND CHILL INDEX.

*  THESE STATIONS ARE NOT NWS OR FAA STATIONS AND ARE NOT UNDER
   NWS QUALITY CONTROL.

LAZ040-048-061>063-065-066-069-260200-
SOUTHEAST LOUISIANA

CITY           SKY/WX    TMP DP  RH WIND       PRES   REMARKS
N.O. INTL ARPT MOCLDY    69  64  84 E14       30.02S
N.O. LAKEFRONT MOCLDY    70  63  78 SE14G23   30.03S
N.O. DOWNTOWN* MOCLDY    69  62  78 SE9       30.04S
RESERVE*       CLOUDY    71  62  72 SE6       30.03R
SLIDELL        FAIR      67  61  81 E6        30.03S
BATON ROUGE    LGT RAIN  67  61  81 E12       30.00F
BOOTHVILLE     CLOUDY    67  64  90 E8        30.06S
BELLE CHASSE   FAIR      69  66  90 SE14      30.02F
BOGALUSA*      CLOUDY    68  61  77 E5        30.06R
GALLIANO*      CLOUDY    70  63  79 E12G21    30.03S
NEW ROADS*     CLOUDY    67  62  85 E10G17    29.99F
GONZALES*      CLOUDY    70  62  76 SE8G20    30.00S
HAMMOND*       CLOUDY    66  61  82 E3        30.04R
HOUMA*         PTCLDY    70  64  83 E16       30.02S
PORT FOURCHON* CLOUDY    68  66  94 E17G26    30.03S

$$

LAZ041-044-053-054-260200-
SOUTHWEST LOUISIANA

CITY           SKY/WX    TMP DP  RH WIND       PRES   REMARKS
LAKE CHARLES   CLOUDY    67  65  93 NE5       29.96R
LAFAYETTE      CLOUDY    74  71  91 S9        29.96S
PATTERSON      LGT RAIN  68  67  96 E8        30.00R FOG
SALT POINT       N/A     70  67  90 SE8       29.98R
NEW IBERIA     LGT RAIN  72  66  81 SE15      29.97S
CHENAULT AIRPK CLOUDY    64  63  94 NE6       29.97R

$$

LAZ027-028-260200-
CENTRAL LOUISIANA

CITY           SKY/WX    TMP DP  RH WIND       PRES   REMARKS
FORT POLK      LGT RAIN  55  55 100 NE5       29.99F FOG
ALEXANDRIA INT HVY RAIN  55  55 100 CALM      30.04R FOG
ALEXANDRIA     HVY RAIN  54  54 100 E8        30.02F FOG

$$

LAZ001-002-260200-
NORTHWEST LOUISIANA

CITY           SKY/WX    TMP DP  RH WIND       PRES   REMARKS
SHREVEPORT     CLOUDY    51  51 100 NE3       30.03R
BARKSDALE AFB  CLOUDY    50  49  97 CALM      30.03S
DTN SHREVEPORT CLOUDY    52  50  93 NE5       30.03S

$$

LAZ014-016-260200-
NORTHEAST LOUISIANA

CITY           SKY/WX    TMP DP  RH WIND       PRES   REMARKS
MONROE         RAIN      52  51  97 CALM      30.06F
TALLULAH       TSTM      53  53 100 E13       30.06F FOG

$$




USA.gov is the U.S. government's official web portal to all federal, state and local government web resources and services.